STARLINK-33833, 63498

Orbit data source: Space-Track

STARLINK-33833, 63498 is a payload satellite owned by SpaceX/Seattle (US) in LEO that was launched on Mon, 07 Apr 2025 UTC via an FALCON 9 launch vehicle from the Air Force Western Test Range (AFWTR). Payload-class satellites include a variety of spacecraft equipped with specific instruments for various scientific and technological missions. These include communications satellites like Starlink; space stations such as the ISS; scientific satellites like the Hubble; Earth observation satellites from companies like Planet Labs, Umbra, and HawkEye 360; GPS; miniature CubeSats for education and research; and military/defense satellites.

Loading next visibility...
Identifier
63498, 2025-071F
Orbit
LEO
Last TLE update
1 day ago
Origin
Manufacturer
SpaceX/Seattle
Mission
Operational spacecraft
Bus & Motor
STARLINK V2MO, Unknown motor
Mass
575 kg wet, ~530 kg dry
Launch date (UTC)
2025-04-07 (3 weeks ago)
Launch vehicle
FALCON 9
Launch site
Air Force Western Test Range (AFWTR)
Object type
Payload
Rocket body
Debris
Shape & HBR
Unknown
Radar Cross Section
Large (>1 m²)

Expand to show TLE details & history

TLE from 1 day ago
0 STARLINK-33833
1 63498U 25071F   25119.16667824 -.01476560  00000-0 -20417-1 0  9999
2 63498  53.1591 166.7037 0001144  92.3311 231.7924 15.59543151  4534
Epoch: 2025-04-29T04:00Z
Definitive object data (Epoch: 2025-04-29T04:00:00.999Z)
Latitude
-28.18357°
Longitude
-134.19914°
Altitude
397.907 km
Speed
7.671 km/s
True Right ascension
09h 32m 42s
True Declination
-28° 01' 59"
Sunlit
Object was in full shadow at TLE epoch
Visualization TLE readout
Latitude
19.33823°
Longitude
48.10423°
Altitude
400.161 km
Speed
7.674 km/s
Apparent Right ascension
00h 49m 19s
Apparent Declination
-17° 25' 26"
Sunlit
Object is in daylight
Visualization observer readout
Local Sidereal Time
17:38:40
Azimuth
92.768° ESE
Elevation
-24.464°
Doppler factor
1
Orbital elements
Apogee altitude
390.012 km
Perigee altitude
388.464 km
Semi-major axis
6,767.375 km
Eccentricity
0.0001144
Inclination
53.1591°
RAAN
166.7037°
Arg. of periapsis
92.3311°
True anomaly
231.7821°
Mean anomaly
231.7924°
Eccentric anomaly
231.78725°
Mean motion
3.89864 °/min
BSTAR
-0.020417
Orbital period
92.34 mins
Loading maneuver chart data...
Loading SW <> Apogee altitude chart data...
Loading historical data...
Loading historical data...
Loading historical data...
Loading historical data...
Loading historical data...
Loading historical data...
Loading historical data...

STARLINK-33833 Visibility forecast

Observer location: undefined°, undefined°

Span
Click to sort rows by Start time (UTC) header in descending order
Start Az.
Max El. time (UTC)
Max El. Az.
Max El.
End time (UTC)
End Az.
5 mins2025-04-30 11:24:43.990Z335.009° NNW2025-04-30 11:26:43.990Z14.936° NNE21.097°2025-04-30 11:29:43.990Z83.841° E
4 mins2025-04-30 13:01:43.990Z284.258° WNW2025-04-30 13:03:43.990Z215.601° SW31.384°2025-04-30 13:05:43.990Z162.474° S
5 mins2025-05-01 05:40:43.990Z248.844° W2025-05-01 05:42:43.990Z333.545° NNW40.158°2025-05-01 05:45:43.990Z42.966° NE
|